CW3157 Weather Reports


time (UTC)temp
C
wind
direction
speed
KPH
gust
KPH
rain 1hr
cm
rain 24hr
cm
rain mn
cm
humidity
%
barometer
mb
20260504190813 22 298 8.0 22.5 0.00 0.00 0.00 35 1009.9
20260504190313 21 348 3.2 22.5 0.00 0.00 0.00 36 1009.9
20260504185812 21 231 16.1 17.7 0.00 0.00 0.00 37 1010.0
20260504185313 21 197 1.6 19.3 0.00 0.00 0.00 36 1010.2
20260504184813 22 215 14.5 20.9 0.00 0.00 0.00 35 1010.3
20260504184313 21 232 3.2 20.9 0.00 0.00 0.00 36 1010.3
20260504183813 21 245 4.8 16.1 0.00 0.00 0.00 39 1010.3
20260504183312 21 185 6.4 20.9 0.00 0.00 0.00 36 1010.3
20260504182812 21 227 6.4 20.9 0.00 0.00 0.00 36 1010.5
20260504182312 22 273 4.8 19.3 0.00 0.00 0.00 35 1010.4
20260504181813 21 260 6.4 22.5 0.00 0.00 0.00 37 1010.6
20260504181313 21 255 12.9 22.5 0.00 0.00 0.00 38 1010.6
20260504180813 21 360 16.1 19.3 0.00 0.00 0.00 37 1010.7
20260504180313 21 267 6.4 19.3 0.00 0.00 0.00 35 1010.8
20260504175313 21 349 6.4 19.3 0.00 0.00 0.00 36 1010.9
20260504174813 21 182 16.1 19.3 0.00 0.00 0.00 38 1010.9
20260504174312 21 257 8.0 19.3 0.00 0.00 0.00 38 1011.0
20260504173313 21 225 6.4 22.5 0.00 0.00 0.00 35 1011.2
20260504172813 21 299 4.8 20.9 0.00 0.00 0.00 37 1011.3
20260504171812 21 338 14.5 24.1 0.00 0.00 0.00 39 1011.5
20260504171313 20 269 14.5 24.1 0.00 0.00 0.00 34 1011.6
20260504170812 20 237 24.1 24.1 0.00 0.00 0.00 40 1011.6
20260504170313 20 321 14.5 22.5 0.00 0.00 0.00 38 1011.8
20260504160313 20 189 9.7 19.3 0.00 0.00 0.00 38 1012.4
20260504150812 18 236 1.6 17.7 0.00 0.00 0.00 32 1012.8
20260504150313 18 211 4.8 17.7 0.00 0.00 0.00 35 1012.8
20260504141313 17 344 6.4 12.9 0.00 0.00 0.00 40 1013.1
20260504140813 17 283 11.3 14.5 0.00 0.00 0.00 43 1013.1
20260504140313 16 271 3.2 14.5 0.00 0.00 0.00 40 1013.1
20260504130812 13 253 0.0 14.5 0.00 0.00 0.00 52 1013.6
20260504130313 13 290 3.2 14.5 0.00 0.00 0.00 50 1013.6
20260504120312 11 199 4.8 12.9 0.00 0.00 0.00 49 1013.6
20260504110312 5 70 1.6 3.2 0.00 0.00 0.00 73 1013.7
20260504100312 3 296 1.6 6.4 0.00 0.00 0.00 82 1013.5
20260504081812 3 275 3.2 6.4 0.00 0.00 0.00 77 1013.8
20260504081312 3 275 1.6 4.8 0.00 0.00 0.00 77 1013.7
20260504080812 3 275 3.2 6.4 0.00 0.00 0.00 76 1013.7
20260504080312 3 275 4.8 6.4 0.00 0.00 0.00 77 1013.7
20260504070312 4 263 0.0 8.0 0.00 0.00 0.00 73 1013.8
20260504050312 5 273 3.2 4.8 0.00 0.00 0.00 71 1013.8
20260504045812 5 273 3.2 6.4 0.00 0.00 0.00 69 1013.8
20260504045312 5 273 1.6 6.4 0.00 0.00 0.00 68 1013.6
20260504044812 5 273 1.6 4.8 0.00 0.00 0.00 68 1013.6
20260504044312 5 273 1.6 9.7 0.00 0.00 0.00 71 1013.6
20260504043812 5 273 1.6 9.7 0.00 0.00 0.00 70 1013.6
20260504043312 5 275 0.0 6.4 0.00 0.00 0.00 71 1013.6
20260504042812 5 274 0.0 6.4 0.00 0.00 0.00 72 1013.6
20260504042312 5 286 0.0 4.8 0.00 0.00 0.00 70 1013.6
20260504041812 5 286 4.8 4.8 0.00 0.00 0.00 70 1013.5
20260504041312 5 286 1.6 3.2 0.00 0.00 0.00 72 1013.4
20260504040812 5 286 1.6 4.8 0.00 0.00 0.00 71 1013.4
20260504040312 5 286 1.6 4.8 0.00 0.00 0.00 71 1013.3
20260504035812 5 286 1.6 4.8 0.00 0.00 0.00 69 1013.3
20260504034312 5 286 4.8 6.4 0.00 0.00 0.00 68 1013.1
20260504033312 5 261 1.6 4.8 0.00 0.00 0.00 68 1013.0
20260504032812 5 261 1.6 4.8 0.00 0.00 0.00 68 1013.0
20260504032312 5 257 3.2 4.8 0.00 0.00 0.00 68 1013.0
20260504031812 5 257 3.2 4.8 0.00 0.00 0.00 68 1013.0
20260504031312 5 257 4.8 6.4 0.00 0.00 0.00 68 1013.0
20260504030812 5 257 3.2 6.4 0.00 0.00 0.00 67 1012.9
20260504025812 6 257 1.6 4.8 0.00 0.00 0.00 68 1013.0
20260504025312 6 257 1.6 4.8 0.00 0.00 0.00 68 1012.8
20260504024812 5 257 1.6 4.8 0.00 0.00 0.00 70 1012.9
20260504024312 5 257 1.6 3.2 0.00 0.00 0.00 69 1012.9
20260504023812 6 257 1.6 3.2 0.00 0.00 0.00 68 1012.9
20260504023312 6 257 1.6 3.2 0.00 0.00 0.00 68 1012.9
20260504022812 6 257 0.0 3.2 0.00 0.00 0.00 68 1012.9
20260504022312 6 257 1.6 3.2 0.00 0.00 0.00 68 1012.9
20260504021312 6 257 1.6 4.8 0.00 0.00 0.00 70 1013.0
20260504020812 6 257 1.6 4.8 0.00 0.00 0.00 71 1012.9
20260504020312 6 257 1.6 4.8 0.00 0.00 0.00 66 1012.9
20260504015812 7 257 1.6 4.8 0.00 0.00 0.00 63 1013.0
20260504014812 7 257 1.6 6.4 0.00 0.00 0.00 68 1012.7
20260504014312 7 276 3.2 9.7 0.00 0.00 0.00 66 1012.7
20260504013812 7 276 1.6 9.7 0.00 0.00 0.00 63 1012.7
20260504013312 7 280 0.0 6.4 0.00 0.00 0.00 64 1012.7
20260504012812 7 280 1.6 6.4 0.00 0.00 0.00 64 1012.6
20260504012312 7 280 3.2 6.4 0.00 0.00 0.00 65 1012.7
20260504011812 7 280 1.6 6.4 0.00 0.00 0.00 65 1012.7
20260504011312 7 325 3.2 6.4 0.00 0.00 0.00 64 1012.6
20260504010312 7 201 1.6 4.8 0.00 0.00 0.00 59 1012.5
20260504005812 7 202 1.6 6.4 0.00 0.00 0.00 60 1012.5
20260504005312 7 202 4.8 6.4 0.00 0.00 0.00 60 1012.3
20260504004312 8 270 0.0 3.2 0.00 0.00 0.00 61 1012.3
20260504003312 10 270 1.6 9.7 0.00 0.00 0.00 52 1012.1
20260504002812 10 284 4.8 9.7 0.00 0.00 0.00 52 1012.2
20260504002312 10 216 3.2 6.4 0.00 0.00 0.00 50 1012.1
20260504001812 10 155 3.2 6.4 0.00 0.00 0.00 49 1012.0
20260504001312 11 223 4.8 14.5 0.00 0.00 0.00 48 1012.0
20260504000812 11 314 1.6 14.5 0.00 0.00 0.00 46 1011.9
20260504000312 11 326 1.6 12.9 0.00 0.00 0.00 44 1011.8
20260503235812 11 271 3.2 24.1 0.00 0.00 0.00 44 1011.9
20260503235312 11 211 11.3 24.1 0.00 0.00 0.00 49 1011.8
20260503234812 11 270 4.8 14.5 0.00 0.00 0.00 44 1011.7
20260503234312 12 230 3.2 14.5 0.00 0.00 0.00 40 1011.7
20260503233312 12 303 6.4 14.5 0.00 0.00 0.00 39 1011.7
20260503232812 12 290 6.4 14.5 0.00 0.00 0.00 38 1011.7
20260503232312 13 218 3.2 9.7 0.00 0.00 0.00 35 1011.7
20260503231812 13 230 0.0 17.7 0.00 0.00 0.00 37 1011.7
20260503231312 13 207 1.6 17.7 0.00 0.00 0.00 35 1011.5
20260503230812 13 294 8.0 25.7 0.00 0.00 0.00 37 1011.6
20260503230312 13 339 4.8 25.7 0.00 0.00 0.00 36 1011.5
20260503225312 13 246 12.9 14.5 0.00 0.00 0.00 36 1011.5
20260503224812 13 329 1.6 16.1 0.00 0.00 0.00 37 1011.4
20260503224312 13 248 8.0 27.4 0.00 0.00 0.00 34 1011.4
20260503223312 13 268 3.2 17.7 0.00 0.00 0.00 37 1011.3
20260503221812 13 266 17.7 22.5 0.00 0.00 0.00 34 1011.4
20260503221312 13 286 6.4 17.7 0.00 0.00 0.00 38 1011.4
20260503220812 13 238 8.0 11.3 0.00 0.00 0.00 35 1011.4
20260503220312 13 271 3.2 14.5 0.00 0.00 0.00 33 1011.5
20260503215812 13 269 9.7 27.4 0.00 0.00 0.00 36 1011.5
20260503215312 13 294 6.4 27.4 0.00 0.00 0.00 31 1011.5
20260503214812 14 234 20.9 25.7 0.00 0.00 0.00 33 1011.5
20260503214312 14 279 4.8 19.3 0.00 0.00 0.00 31 1011.4
20260503213812 14 17 1.6 25.7 0.00 0.00 0.00 31 1011.4
20260503213312 15 221 4.8 37.0 0.00 0.00 0.00 30 1011.4
20260503212812 14 259 22.5 37.0 0.00 0.00 0.00 32 1011.4
20260503211812 15 257 17.7 25.7 0.00 0.00 0.00 30 1011.2
20260503211312 15 360 24.1 24.1 0.00 0.00 0.00 32 1011.3
20260503210812 15 360 4.8 22.5 0.00 0.00 0.00 33 1011.3
20260503210312 15 258 3.2 29.0 0.00 0.00 0.00 32 1011.3
20260503205812 15 252 3.2 29.0 0.00 0.00 0.00 30 1011.2
20260503205312 15 5 6.4 16.1 0.00 0.00 0.00 31 1011.3
20260503204812 15 329 6.4 27.4 0.00 0.00 0.00 30 1011.4
20260503204312 15 273 6.4 27.4 0.00 0.00 0.00 30 1011.3
20260503203812 15 317 3.2 27.4 0.00 0.00 0.00 30 1011.4
20260503203312 15 285 6.4 22.5 0.00 0.00 0.00 30 1011.3
20260503202812 15 242 19.3 24.1 0.00 0.00 0.00 35 1011.5
20260503202312 15 275 11.3 24.1 0.00 0.00 0.00 33 1011.6
20260503200812 15 300 11.3 29.0 0.00 0.00 0.00 31 1011.7
20260503200312 15 44 3.2 29.0 0.00 0.00 0.00 33 1011.6
20260503195812 15 200 8.0 22.5 0.00 0.00 0.00 30 1011.7
20260503194812 14 286 9.7 32.2 0.00 0.00 0.00 35 1011.7
20260503193812 14 355 9.7 30.6 0.00 0.00 0.00 33 1012.0
20260503193312 14 66 14.5 30.6 0.00 0.00 0.00 32 1012.1
20260503192812 14 25 24.1 30.6 0.00 0.00 0.00 29 1012.3
20260503191812 15 286 11.3 32.2 0.00 0.00 0.00 36 1012.2
20260503191312 13 222 9.7 33.8 0.00 0.00 0.00 31 1012.3